SVR0301 ULLI-LSZH

Flight info

Callsign SVR0301
Flight time 2h 52m
Altitude 36000
Route TURAL L870 RESMO DCT SOKVA N619 LEP M990 GARSO DCT RONUN/K0839F360 DCT KUNER/N0452F360 DCT BEZMI DCT GOVEN DCT AMOSA DCT DKB DCT TEDGO T724 RILAX
Aircraft A320/M-SDE3FGHIRWY/LB1

Departure

Time 2026-05-07 10:10
Airport Pulkovo Airport (ULLI)

Arrival

Time 2026-05-07 13:02
Airport Zürich Airport (LSZH)
Time Latitude Longitude Altitude Speed Heading
2026-05-07 09:42 59.80108 30.26866 89 ft 0 kts 107°
2026-05-07 09:56 59.80112 30.26842 89 ft 4 kts 107°
2026-05-07 09:56 59.80120 30.26791 90 ft 4 kts 105°
2026-05-07 09:57 59.80126 30.26739 89 ft 4 kts 100°
2026-05-07 09:57 59.80128 30.26687 88 ft 4 kts 75°
2026-05-07 09:57 59.80119 30.26658 87 ft 1 kts 17°
2026-05-07 09:59 59.80129 30.26664 89 ft 4 kts 17°
2026-05-07 10:00 59.80175 30.26691 84 ft 10 kts 17°
2026-05-07 10:00 59.80224 30.26720 88 ft 12 kts 16°
2026-05-07 10:00 59.80308 30.26770 87 ft 12 kts 17°
2026-05-07 10:00 59.80384 30.26804 86 ft 10 kts 355°
2026-05-07 10:01 59.80421 30.26704 85 ft 10 kts 284°
2026-05-07 10:01 59.80443 30.26546 85 ft 14 kts 287°
2026-05-07 10:01 59.80474 30.26342 86 ft 17 kts 287°
2026-05-07 10:01 59.80511 30.26092 85 ft 20 kts 286°
2026-05-07 10:02 59.80549 30.25839 77 ft 19 kts 287°
2026-05-07 10:02 59.80585 30.25594 78 ft 18 kts 286°
2026-05-07 10:02 59.80621 30.25359 73 ft 17 kts 287°
2026-05-07 10:02 59.80654 30.25138 74 ft 16 kts 287°
2026-05-07 10:03 59.80685 30.24931 76 ft 15 kts 287°
2026-05-07 10:03 59.80715 30.24734 75 ft 14 kts 287°
2026-05-07 10:03 59.80776 30.24606 74 ft 12 kts 344°
2026-05-07 10:03 59.80814 30.24589 72 ft 0 kts 348°
2026-05-07 10:07 59.80824 30.24585 65 ft 5 kts 348°
2026-05-07 10:07 59.80886 30.24560 68 ft 13 kts 349°
2026-05-07 10:08 59.80957 30.24650 73 ft 13 kts 92°
2026-05-07 10:08 59.80951 30.24708 69 ft 0 kts 105°
2026-05-07 10:09 59.80935 30.24818 71 ft 35 kts 106°
2026-05-07 10:09 59.80796 30.25747 76 ft 102 kts 107°
2026-05-07 10:09 59.80543 30.27427 85 ft 153 kts 106°
2026-05-07 10:10 59.80217 30.29611 454 ft 166 kts 107°
2026-05-07 10:10 59.79888 30.31802 1264 ft 165 kts 105°
2026-05-07 10:10 59.79552 30.34061 1773 ft 180 kts 105°
2026-05-07 10:10 59.79174 30.36597 2100 ft 201 kts 105°
2026-05-07 10:11 59.78756 30.39385 2583 ft 217 kts 105°
2026-05-07 10:11 59.78322 30.42282 3463 ft 220 kts 105°
2026-05-07 10:11 59.77887 30.45193 4423 ft 220 kts 105°
2026-05-07 10:11 59.77449 30.48127 5305 ft 223 kts 105°
2026-05-07 10:12 59.77003 30.51102 6167 ft 226 kts 104°
2026-05-07 10:12 59.76839 30.54192 6926 ft 229 kts 79°
2026-05-07 10:12 59.77529 30.57057 7620 ft 238 kts 48°
2026-05-07 10:12 59.78958 30.58790 8271 ft 250 kts 19°
2026-05-07 10:13 59.80660 30.59803 8933 ft 259 kts 17°
2026-05-07 10:13 59.82426 30.60794 9628 ft 267 kts 10°
2026-05-07 10:13 59.84266 30.60663 10300 ft 268 kts 337°
2026-05-07 10:13 59.85818 30.58690 10835 ft 271 kts 307°
2026-05-07 10:14 59.86653 30.55343 11399 ft 274 kts 283°
2026-05-07 10:14 59.87189 30.51678 12161 ft 276 kts 283°
2026-05-07 10:14 59.87577 30.47957 12977 ft 273 kts 270°
2026-05-07 10:14 59.87515 30.44231 13879 ft 267 kts 258°
2026-05-07 10:15 59.87181 30.40656 14597 ft 266 kts 257°
2026-05-07 10:15 59.86838 30.37027 15301 ft 267 kts 257°
2026-05-07 10:15 59.86494 30.33371 15968 ft 271 kts 257°
2026-05-07 10:15 59.86086 30.29689 16559 ft 274 kts 250°
2026-05-07 10:16 59.85435 30.25981 16723 ft 294 kts 249°
2026-05-07 10:16 59.84715 30.22032 16868 ft 313 kts 249°
2026-05-07 10:16 59.83944 30.17834 17004 ft 332 kts 249°
2026-05-07 10:16 59.83136 30.13431 17302 ft 344 kts 249°
2026-05-07 10:17 59.82315 30.08930 17863 ft 348 kts 249°
2026-05-07 10:17 59.81487 30.04394 18490 ft 350 kts 249°
2026-05-07 10:17 59.80652 29.99830 19054 ft 352 kts 249°
2026-05-07 10:17 59.79813 29.95257 19636 ft 354 kts 249°
2026-05-07 10:18 59.78965 29.90659 20221 ft 355 kts 249°
2026-05-07 10:18 59.78111 29.86047 20798 ft 357 kts 249°
2026-05-07 10:18 59.77251 29.81411 21353 ft 358 kts 249°
2026-05-07 10:18 59.76400 29.76824 21888 ft 360 kts 249°
2026-05-07 10:19 59.75530 29.72153 22421 ft 361 kts 249°
2026-05-07 10:19 59.74657 29.67465 22899 ft 363 kts 249°
2026-05-07 10:19 59.73780 29.62762 23441 ft 364 kts 249°
2026-05-07 10:19 59.72896 29.58040 23886 ft 366 kts 249°
2026-05-07 10:20 59.72009 29.53314 24312 ft 366 kts 249°
2026-05-07 10:20 59.71119 29.48574 24738 ft 367 kts 249°
2026-05-07 10:20 59.70228 29.43840 25157 ft 367 kts 249°
2026-05-07 10:20 59.69329 29.39091 25572 ft 368 kts 249°
2026-05-07 10:21 59.68425 29.34346 25998 ft 369 kts 248°
2026-05-07 10:21 59.67508 29.29556 26270 ft 373 kts 248°
2026-05-07 10:21 59.66597 29.24791 26590 ft 375 kts 248°
2026-05-07 10:21 59.65669 29.19937 26940 ft 377 kts 248°
2026-05-07 10:22 59.64739 29.15081 27286 ft 378 kts 248°
2026-05-07 10:22 59.63800 29.10210 27634 ft 380 kts 248°
2026-05-07 10:22 59.62857 29.05325 27967 ft 381 kts 248°
2026-05-07 10:22 59.61914 29.00432 28294 ft 382 kts 248°
2026-05-07 10:23 59.61004 28.95484 28604 ft 383 kts 249°
2026-05-07 10:23 59.60121 28.90495 28931 ft 382 kts 250°
2026-05-07 10:23 59.59264 28.85562 29445 ft 377 kts 250°
2026-05-07 10:23 59.58425 28.80740 29824 ft 375 kts 249°
2026-05-07 10:24 59.57573 28.75898 30239 ft 372 kts 249°
2026-05-07 10:24 59.56720 28.71093 30564 ft 370 kts 249°
2026-05-07 10:24 59.55863 28.66304 30850 ft 370 kts 249°
2026-05-07 10:24 59.54999 28.61515 31114 ft 370 kts 249°
2026-05-07 10:25 59.54130 28.56729 31376 ft 371 kts 249°
2026-05-07 10:25 59.53257 28.51930 31635 ft 371 kts 249°
2026-05-07 10:25 59.52388 28.47129 31903 ft 372 kts 249°
2026-05-07 10:25 59.51527 28.42326 32165 ft 372 kts 249°
2026-05-07 10:26 59.50680 28.37580 32461 ft 373 kts 249°
2026-05-07 10:26 59.49811 28.32734 32595 ft 377 kts 249°
2026-05-07 10:26 59.48933 28.27854 32748 ft 380 kts 249°
2026-05-07 10:26 59.48042 28.22938 32987 ft 381 kts 249°
2026-05-07 10:27 59.47143 28.18031 33282 ft 381 kts 249°
2026-05-07 10:27 59.46246 28.13139 33539 ft 380 kts 249°
2026-05-07 10:27 59.45354 28.08274 33883 ft 377 kts 249°
2026-05-07 10:27 59.44444 28.03432 34159 ft 377 kts 248°
2026-05-07 10:28 59.43519 27.98614 34392 ft 377 kts 248°
2026-05-07 10:28 59.42585 27.93790 34593 ft 378 kts 248°
2026-05-07 10:28 59.41646 27.88965 34778 ft 379 kts 248°
2026-05-07 10:28 59.40702 27.84125 34956 ft 380 kts 248°
2026-05-07 10:29 59.39754 27.79281 35133 ft 380 kts 248°
2026-05-07 10:29 59.38806 27.74423 35311 ft 381 kts 248°
2026-05-07 10:29 59.37860 27.69548 35480 ft 382 kts 248°
2026-05-07 10:30 59.35951 27.59798 35816 ft 384 kts 248°
2026-05-07 10:30 59.34992 27.54917 35980 ft 384 kts 248°
2026-05-07 10:30 59.32467 27.45753 36038 ft 388 kts 232°
2026-05-07 10:31 59.29012 27.37602 36038 ft 390 kts 232°
2026-05-07 10:31 59.25542 27.29410 36032 ft 391 kts 232°
2026-05-07 10:32 59.22066 27.21229 36032 ft 391 kts 232°
2026-05-07 10:32 59.18586 27.13067 36034 ft 391 kts 232°
2026-05-07 10:33 59.15092 27.04906 36037 ft 392 kts 232°
2026-05-07 10:33 59.11595 26.96754 36040 ft 392 kts 232°
2026-05-07 10:34 59.08101 26.88624 36014 ft 391 kts 232°
2026-05-07 10:34 59.04618 26.80567 36034 ft 391 kts 231°
2026-05-07 10:35 59.01104 26.72492 36038 ft 391 kts 231°
2026-05-07 10:35 58.97595 26.64431 36035 ft 391 kts 231°
2026-05-07 10:36 58.94089 26.56387 36032 ft 391 kts 231°
2026-05-07 10:36 58.90574 26.48366 36031 ft 390 kts 231°
2026-05-07 10:37 58.87054 26.40365 36035 ft 390 kts 231°
2026-05-07 10:37 58.83552 26.32444 36033 ft 390 kts 231°
2026-05-07 10:38 58.80016 26.24462 36029 ft 390 kts 231°
2026-05-07 10:38 58.76482 26.16505 36031 ft 390 kts 231°
2026-05-07 10:39 58.72964 26.08618 36023 ft 390 kts 231°
2026-05-07 10:39 58.69420 26.00698 36019 ft 390 kts 231°
2026-05-07 10:40 58.65865 25.92774 36014 ft 391 kts 231°
2026-05-07 10:40 58.62325 25.84914 36013 ft 391 kts 231°
2026-05-07 10:41 58.58753 25.77032 36014 ft 391 kts 231°
2026-05-07 10:41 58.55181 25.69157 36013 ft 391 kts 231°
2026-05-07 10:42 58.51600 25.61283 36021 ft 392 kts 230°
2026-05-07 10:42 58.48011 25.53433 35992 ft 392 kts 230°
2026-05-07 10:43 58.44441 25.45647 36001 ft 392 kts 230°
2026-05-07 10:43 58.40846 25.37823 36006 ft 391 kts 230°
2026-05-07 10:44 58.37250 25.30001 36010 ft 391 kts 230°
2026-05-07 10:44 58.33673 25.22262 36010 ft 391 kts 230°
2026-05-07 10:45 58.30059 25.14505 36011 ft 392 kts 230°
2026-05-07 10:45 58.26439 25.06759 35977 ft 392 kts 230°
2026-05-07 10:46 58.22820 24.99020 35995 ft 391 kts 230°
2026-05-07 10:46 58.19197 24.91298 36009 ft 392 kts 230°
2026-05-07 10:47 58.15573 24.83576 36008 ft 392 kts 230°
2026-05-07 10:47 58.11965 24.75924 36011 ft 392 kts 230°
2026-05-07 10:48 58.08935 24.69535 36012 ft 392 kts 230°
2026-05-07 10:48 58.05295 24.61876 35983 ft 392 kts 230°
2026-05-07 10:49 58.01646 24.54211 35982 ft 392 kts 230°
2026-05-07 10:49 57.97991 24.46558 35987 ft 392 kts 229°
2026-05-07 10:50 57.94321 24.38924 35993 ft 392 kts 229°
2026-05-07 10:50 57.90670 24.31360 35997 ft 392 kts 229°
2026-05-07 10:51 57.87325 24.23287 35998 ft 392 kts 234°
2026-05-07 10:51 57.84030 24.15104 35978 ft 392 kts 233°
2026-05-07 10:52 57.80724 24.06968 35984 ft 392 kts 233°
2026-05-07 10:52 57.77414 23.98842 35984 ft 392 kts 233°
2026-05-07 10:53 57.74102 23.90730 35990 ft 392 kts 233°
2026-05-07 10:53 57.70785 23.82634 35992 ft 392 kts 233°
2026-05-07 10:54 57.67483 23.74602 35991 ft 392 kts 233°
2026-05-07 10:54 57.64152 23.66540 35965 ft 392 kts 233°
2026-05-07 10:55 57.60809 23.58467 35970 ft 393 kts 233°
2026-05-07 10:55 57.57460 23.50398 35978 ft 393 kts 233°
2026-05-07 10:56 57.54098 23.42338 36020 ft 394 kts 233°
2026-05-07 10:56 57.50729 23.34284 36016 ft 394 kts 233°
2026-05-07 10:57 57.47353 23.26238 36013 ft 394 kts 233°
2026-05-07 10:57 57.43994 23.18275 35981 ft 394 kts 233°
2026-05-07 10:58 57.40609 23.10255 35984 ft 395 kts 233°
2026-05-07 10:58 57.37220 23.02249 35997 ft 395 kts 232°
2026-05-07 10:59 57.33816 22.94248 35995 ft 395 kts 232°
2026-05-07 10:59 57.30402 22.86263 35996 ft 395 kts 232°
2026-05-07 11:00 57.26988 22.78292 35999 ft 396 kts 232°
2026-05-07 11:00 57.23558 22.70322 35985 ft 396 kts 232°
2026-05-07 11:01 57.20131 22.62359 35986 ft 396 kts 232°
2026-05-07 11:01 57.16694 22.54398 35997 ft 397 kts 232°
2026-05-07 11:02 57.13245 22.46446 35998 ft 397 kts 232°
2026-05-07 11:02 57.09811 22.38573 36008 ft 397 kts 232°
2026-05-07 11:03 57.06344 22.30660 36002 ft 396 kts 232°
2026-05-07 11:03 57.02883 22.22771 35968 ft 396 kts 232°
2026-05-07 11:04 56.99406 22.14899 35977 ft 397 kts 232°
2026-05-07 11:04 56.95925 22.07045 35984 ft 397 kts 232°
2026-05-07 11:05 56.92435 21.99192 35983 ft 397 kts 232°
2026-05-07 11:05 56.88943 21.91363 35982 ft 397 kts 231°
2026-05-07 11:06 56.85471 21.83593 35986 ft 397 kts 231°
2026-05-07 11:06 56.81964 21.75779 35991 ft 397 kts 231°
2026-05-07 11:07 56.78447 21.67981 35991 ft 397 kts 231°
2026-05-07 11:07 56.74933 21.60200 35993 ft 397 kts 231°
2026-05-07 11:08 56.71410 21.52429 35988 ft 397 kts 231°
2026-05-07 11:08 56.67889 21.44682 35994 ft 398 kts 231°
2026-05-07 11:09 56.64356 21.36930 36036 ft 398 kts 231°
2026-05-07 11:09 56.60817 21.29191 36012 ft 398 kts 231°
2026-05-07 11:10 56.57289 21.21514 36010 ft 398 kts 231°
2026-05-07 11:10 56.53733 21.13806 36006 ft 398 kts 231°
2026-05-07 11:11 56.50348 21.05898 36009 ft 397 kts 237°
2026-05-07 11:11 56.47344 20.97489 36003 ft 397 kts 237°
2026-05-07 11:12 56.44338 20.89160 36000 ft 397 kts 237°
2026-05-07 11:12 56.41301 20.80788 35971 ft 398 kts 237°
2026-05-07 11:13 56.38258 20.72398 35988 ft 398 kts 237°
2026-05-07 11:13 56.35215 20.64042 35998 ft 399 kts 236°
2026-05-07 11:14 56.32179 20.55754 36003 ft 399 kts 237°
2026-05-07 11:14 56.29125 20.47410 36001 ft 399 kts 236°
2026-05-07 11:15 56.26058 20.39083 36016 ft 399 kts 236°
2026-05-07 11:15 56.22986 20.30765 35982 ft 399 kts 236°
2026-05-07 11:16 56.19907 20.22448 36000 ft 400 kts 236°
2026-05-07 11:16 56.16819 20.14149 35999 ft 400 kts 236°
2026-05-07 11:17 56.13513 20.06120 35996 ft 400 kts 227°
2026-05-07 11:17 56.09691 19.98864 35996 ft 401 kts 227°
2026-05-07 11:18 56.05884 19.91668 36005 ft 401 kts 227°
2026-05-07 11:18 56.02030 19.84374 35999 ft 401 kts 227°
2026-05-07 11:19 55.98211 19.77180 36002 ft 401 kts 227°
2026-05-07 11:19 55.94363 19.69948 36007 ft 402 kts 227°
2026-05-07 11:20 55.90513 19.62728 36005 ft 402 kts 227°
2026-05-07 11:20 55.86659 19.55510 36006 ft 402 kts 227°
2026-05-07 11:21 55.82793 19.48325 36017 ft 402 kts 227°
2026-05-07 11:21 55.78915 19.41138 36016 ft 403 kts 227°
2026-05-07 11:22 55.75027 19.33958 36016 ft 403 kts 227°
2026-05-07 11:22 55.71130 19.26775 36015 ft 404 kts 227°
2026-05-07 11:23 55.67240 19.19602 36016 ft 404 kts 227°
2026-05-07 11:23 55.63365 19.12481 36017 ft 404 kts 226°
2026-05-07 11:24 55.59450 19.05321 36012 ft 404 kts 226°
2026-05-07 11:24 55.55519 18.98170 36019 ft 405 kts 226°
2026-05-07 11:25 55.51588 18.91037 36023 ft 405 kts 226°
2026-05-07 11:25 55.47654 18.83910 36026 ft 405 kts 226°
2026-05-07 11:26 55.43747 18.76842 36029 ft 405 kts 226°
2026-05-07 11:26 55.39811 18.69719 36016 ft 406 kts 226°
2026-05-07 11:27 55.35863 18.62627 36026 ft 406 kts 226°
2026-05-07 11:27 55.31897 18.55558 36029 ft 406 kts 226°
2026-05-07 11:28 55.27931 18.48511 36055 ft 406 kts 226°
2026-05-07 11:28 55.23643 18.42075 36045 ft 408 kts 216°
2026-05-07 11:29 55.18989 18.36386 36042 ft 408 kts 216°
2026-05-07 11:29 55.14320 18.30702 36036 ft 409 kts 216°
2026-05-07 11:30 55.09672 18.25060 36043 ft 409 kts 216°
2026-05-07 11:30 55.04991 18.19375 36048 ft 409 kts 216°
2026-05-07 11:31 55.00315 18.13704 36054 ft 409 kts 216°
2026-05-07 11:31 54.95631 18.08052 36058 ft 410 kts 216°
2026-05-07 11:32 54.88630 17.99617 36053 ft 409 kts 215°
2026-05-07 11:33 54.83933 17.94003 36058 ft 409 kts 215°
2026-05-07 11:33 54.80040 17.89346 36060 ft 409 kts 215°
2026-05-07 11:34 54.75340 17.83756 36061 ft 409 kts 215°
2026-05-07 11:34 54.70644 17.78168 36063 ft 409 kts 215°
2026-05-07 11:35 54.65946 17.72602 36060 ft 409 kts 215°
2026-05-07 11:35 54.61268 17.67085 36061 ft 409 kts 215°
2026-05-07 11:36 54.56563 17.61545 36059 ft 409 kts 215°
2026-05-07 11:36 54.51856 17.56018 36058 ft 409 kts 215°
2026-05-07 11:37 54.47138 17.50488 36047 ft 409 kts 215°
2026-05-07 11:37 54.42449 17.45012 36052 ft 410 kts 214°
2026-05-07 11:38 54.37727 17.39506 36047 ft 410 kts 215°
2026-05-07 11:38 54.33063 17.33877 36049 ft 410 kts 216°
2026-05-07 11:39 54.28428 17.28191 36045 ft 410 kts 216°
2026-05-07 11:39 54.23774 17.22537 36066 ft 410 kts 216°
2026-05-07 11:40 54.19106 17.16911 36044 ft 411 kts 215°
2026-05-07 11:40 54.14414 17.11283 36032 ft 412 kts 215°
2026-05-07 11:41 54.09718 17.05656 36031 ft 412 kts 215°
2026-05-07 11:41 54.05042 17.00063 36027 ft 413 kts 215°
2026-05-07 11:42 54.00330 16.94451 36037 ft 413 kts 215°
2026-05-07 11:42 53.95613 16.88844 36040 ft 413 kts 215°
2026-05-07 11:43 53.90896 16.83256 36043 ft 413 kts 215°
2026-05-07 11:43 53.86169 16.77673 36040 ft 413 kts 215°
2026-05-07 11:44 53.81482 16.72155 36044 ft 413 kts 214°
2026-05-07 11:44 53.76766 16.66616 36043 ft 413 kts 214°
2026-05-07 11:45 53.72037 16.61066 36043 ft 412 kts 214°
2026-05-07 11:45 53.67319 16.55556 36042 ft 412 kts 214°
2026-05-07 11:46 53.62599 16.50053 36042 ft 412 kts 214°
2026-05-07 11:46 53.57873 16.44556 36035 ft 413 kts 214°
2026-05-07 11:47 53.53161 16.39097 36036 ft 413 kts 214°
2026-05-07 11:47 53.48418 16.33625 36034 ft 413 kts 214°
2026-05-07 11:48 53.43675 16.28155 36034 ft 413 kts 214°
2026-05-07 11:48 53.38932 16.22693 36033 ft 413 kts 214°
2026-05-07 11:49 53.34205 16.17274 36030 ft 414 kts 214°
2026-05-07 11:49 53.29448 16.11843 36029 ft 414 kts 214°
2026-05-07 11:50 53.24669 16.06399 36052 ft 414 kts 214°
2026-05-07 11:50 53.19922 16.01009 36044 ft 415 kts 213°
2026-05-07 11:51 53.15141 15.95594 36033 ft 416 kts 213°
2026-05-07 11:51 53.10344 15.90158 36025 ft 417 kts 213°
2026-05-07 11:52 53.05537 15.84729 36022 ft 417 kts 213°
2026-05-07 11:52 53.00752 15.79349 36027 ft 418 kts 213°
2026-05-07 11:53 52.95924 15.73947 36027 ft 418 kts 213°
2026-05-07 11:53 52.91089 15.68549 36026 ft 418 kts 213°
2026-05-07 11:54 52.86260 15.63153 36027 ft 419 kts 213°
2026-05-07 11:54 52.81424 15.57771 36025 ft 419 kts 213°
2026-05-07 11:55 52.76588 15.52404 36028 ft 419 kts 213°
2026-05-07 11:55 52.71737 15.47048 36025 ft 419 kts 213°
2026-05-07 11:56 52.66883 15.41703 36026 ft 419 kts 213°
2026-05-07 11:56 52.62034 15.36368 36024 ft 419 kts 213°
2026-05-07 11:57 52.57182 15.31044 36022 ft 419 kts 213°
2026-05-07 11:57 52.52358 15.25768 36020 ft 419 kts 213°
2026-05-07 11:58 52.47501 15.20463 36021 ft 419 kts 213°
2026-05-07 11:58 52.42639 15.15158 36031 ft 420 kts 213°
2026-05-07 11:59 52.37770 15.09866 36031 ft 420 kts 212°
2026-05-07 11:59 52.32897 15.04598 36027 ft 420 kts 212°
2026-05-07 12:00 52.28025 14.99342 36015 ft 420 kts 212°
2026-05-07 12:00 52.23147 14.94080 36042 ft 421 kts 212°
2026-05-07 12:01 52.18250 14.88827 36016 ft 422 kts 212°
2026-05-07 12:01 52.13331 14.83565 36017 ft 423 kts 212°
2026-05-07 12:02 52.08415 14.78316 36005 ft 423 kts 212°
2026-05-07 12:02 52.03893 14.72309 36004 ft 425 kts 224°
2026-05-07 12:03 51.99775 14.65394 35997 ft 426 kts 224°
2026-05-07 12:03 51.95641 14.58502 36004 ft 426 kts 224°
2026-05-07 12:04 51.91496 14.51614 35998 ft 427 kts 224°
2026-05-07 12:04 51.87349 14.44732 36006 ft 427 kts 224°
2026-05-07 12:05 51.83195 14.37849 36004 ft 427 kts 224°
2026-05-07 12:05 51.79038 14.30981 36006 ft 427 kts 224°
2026-05-07 12:06 51.74872 14.24121 36005 ft 428 kts 224°
2026-05-07 12:06 51.70730 14.17319 36005 ft 428 kts 224°
2026-05-07 12:07 51.66547 14.10478 36001 ft 428 kts 224°
2026-05-07 12:07 51.62368 14.03649 35996 ft 428 kts 224°
2026-05-07 12:08 51.58187 13.96823 36003 ft 428 kts 224°
2026-05-07 12:08 51.54001 13.90016 36002 ft 428 kts 224°
2026-05-07 12:09 51.49793 13.83216 36001 ft 429 kts 224°
2026-05-07 12:09 51.45577 13.76415 36004 ft 429 kts 224°
2026-05-07 12:10 51.41387 13.69668 36002 ft 430 kts 224°
2026-05-07 12:10 51.37160 13.62865 35999 ft 430 kts 224°
2026-05-07 12:11 51.32924 13.56077 36005 ft 431 kts 223°
2026-05-07 12:11 51.28704 13.49356 35996 ft 431 kts 223°
2026-05-07 12:12 51.24447 13.42582 36007 ft 432 kts 224°
2026-05-07 12:12 51.20185 13.35807 35987 ft 433 kts 224°
2026-05-07 12:13 51.15937 13.29079 35987 ft 433 kts 224°
2026-05-07 12:13 51.11652 13.22320 35983 ft 434 kts 224°
2026-05-07 12:14 51.07359 13.15565 35993 ft 434 kts 223°
2026-05-07 12:14 51.03056 13.08812 35979 ft 434 kts 224°
2026-05-07 12:15 50.98761 13.02065 35981 ft 434 kts 224°
2026-05-07 12:15 50.94459 12.95321 35983 ft 435 kts 223°
2026-05-07 12:16 50.90140 12.88603 35990 ft 435 kts 223°
2026-05-07 12:16 50.85809 12.81897 35989 ft 435 kts 223°
2026-05-07 12:17 50.81511 12.75243 35997 ft 435 kts 224°
2026-05-07 12:17 50.77180 12.68529 35984 ft 436 kts 224°
2026-05-07 12:18 50.72844 12.61828 35982 ft 436 kts 224°
2026-05-07 12:18 50.69225 12.56279 35975 ft 436 kts 224°
2026-05-07 12:19 50.64153 12.48525 35964 ft 437 kts 224°
2026-05-07 12:19 50.59793 12.41858 35962 ft 437 kts 224°
2026-05-07 12:20 50.56130 12.36274 35959 ft 437 kts 224°
2026-05-07 12:20 50.51787 12.29679 35966 ft 437 kts 224°
2026-05-07 12:21 50.47414 12.23035 35963 ft 437 kts 224°
2026-05-07 12:21 50.43032 12.16405 35968 ft 438 kts 224°
2026-05-07 12:22 50.38637 12.09784 35968 ft 438 kts 223°
2026-05-07 12:22 50.34239 12.03170 35977 ft 438 kts 224°
2026-05-07 12:23 50.29836 11.96561 35976 ft 439 kts 224°
2026-05-07 12:23 50.25423 11.89956 35975 ft 439 kts 224°
2026-05-07 12:24 50.21008 11.83365 35975 ft 439 kts 224°
2026-05-07 12:24 50.16602 11.76803 35960 ft 438 kts 224°
2026-05-07 12:25 50.12184 11.70250 35969 ft 439 kts 224°
2026-05-07 12:25 50.07780 11.63738 35969 ft 439 kts 224°
2026-05-07 12:26 50.03345 11.57192 35974 ft 439 kts 224°
2026-05-07 12:26 49.98909 11.50664 35987 ft 439 kts 224°
2026-05-07 12:27 49.94471 11.44149 35995 ft 438 kts 224°
2026-05-07 12:27 49.90035 11.37656 36003 ft 439 kts 224°
2026-05-07 12:28 49.85615 11.31205 35991 ft 439 kts 224°
2026-05-07 12:28 49.81172 11.24728 36001 ft 439 kts 224°
2026-05-07 12:29 49.76720 11.18255 36013 ft 439 kts 224°
2026-05-07 12:29 49.72265 11.11806 36018 ft 438 kts 224°
2026-05-07 12:30 49.67805 11.05364 36022 ft 439 kts 224°
2026-05-07 12:30 49.63349 10.98924 36027 ft 439 kts 224°
2026-05-07 12:31 49.58885 10.92502 36034 ft 439 kts 224°
2026-05-07 12:31 49.54440 10.86135 36037 ft 439 kts 223°
2026-05-07 12:32 49.49971 10.79730 36039 ft 439 kts 224°
2026-05-07 12:32 49.45669 10.73072 36049 ft 438 kts 227°
2026-05-07 12:33 49.39342 10.62875 36051 ft 439 kts 227°
2026-05-07 12:33 49.35116 10.56190 36052 ft 439 kts 226°
2026-05-07 12:34 49.30831 10.49525 36053 ft 439 kts 226°
2026-05-07 12:34 49.26532 10.42857 36050 ft 439 kts 226°
2026-05-07 12:35 49.22240 10.36196 36061 ft 438 kts 226°
2026-05-07 12:35 49.17965 10.29554 36060 ft 438 kts 226°
2026-05-07 12:36 49.13767 10.22872 36055 ft 437 kts 231°
2026-05-07 12:36 49.09960 10.15629 36062 ft 438 kts 232°
2026-05-07 12:37 49.06142 10.08391 36052 ft 438 kts 232°
2026-05-07 12:37 49.02319 10.01176 36058 ft 437 kts 232°
2026-05-07 12:38 48.98491 9.93975 36058 ft 437 kts 232°
2026-05-07 12:38 48.94657 9.86794 36056 ft 437 kts 231°
2026-05-07 12:39 48.90821 9.79611 36051 ft 437 kts 232°
2026-05-07 12:39 48.86986 9.72433 36040 ft 437 kts 232°
2026-05-07 12:40 48.83180 9.65339 36041 ft 436 kts 232°
2026-05-07 12:40 48.79341 9.58206 36028 ft 436 kts 232°
2026-05-07 12:41 48.75494 9.51074 36024 ft 437 kts 232°
2026-05-07 12:41 48.71645 9.43955 36017 ft 436 kts 231°
2026-05-07 12:42 48.67820 9.36906 36019 ft 436 kts 231°
2026-05-07 12:42 48.63969 9.29827 36021 ft 436 kts 231°
2026-05-07 12:43 48.59642 9.23429 36020 ft 437 kts 218°
2026-05-07 12:43 48.54741 9.17965 35878 ft 438 kts 218°
2026-05-07 12:44 48.52286 9.15237 35626 ft 438 kts 218°
2026-05-07 12:44 48.49831 9.12503 35382 ft 439 kts 218°
2026-05-07 12:44 48.47380 9.09770 35150 ft 439 kts 218°
2026-05-07 12:44 48.44925 9.07033 34904 ft 439 kts 218°
2026-05-07 12:45 48.42463 9.04294 34668 ft 440 kts 218°
2026-05-07 12:45 48.40029 9.01587 34436 ft 440 kts 218°
2026-05-07 12:45 48.37563 8.98848 34212 ft 441 kts 218°
2026-05-07 12:45 48.35092 8.96111 33970 ft 441 kts 218°
2026-05-07 12:46 48.32617 8.93374 33677 ft 441 kts 218°
2026-05-07 12:46 48.30145 8.90635 33415 ft 442 kts 218°
2026-05-07 12:46 48.27677 8.87890 32947 ft 441 kts 218°
2026-05-07 12:46 48.25192 8.85118 31722 ft 448 kts 218°
2026-05-07 12:47 48.22683 8.82318 30728 ft 449 kts 218°
2026-05-07 12:47 48.20170 8.79527 29538 ft 451 kts 218°
2026-05-07 12:47 48.17656 8.76740 28862 ft 443 kts 218°
2026-05-07 12:47 48.15232 8.74067 28189 ft 436 kts 217°
2026-05-07 12:48 48.12790 8.71399 27470 ft 431 kts 217°
2026-05-07 12:48 48.10372 8.68776 26758 ft 427 kts 217°
2026-05-07 12:48 48.07978 8.66184 26070 ft 423 kts 217°
2026-05-07 12:48 48.05601 8.63617 25393 ft 419 kts 217°
2026-05-07 12:49 48.03250 8.61075 24717 ft 416 kts 217°
2026-05-07 12:49 48.00917 8.58545 24052 ft 413 kts 217°
2026-05-07 12:49 47.98442 8.56389 23361 ft 412 kts 204°
2026-05-07 12:49 47.95699 8.55201 22692 ft 411 kts 190°
2026-05-07 12:50 47.92858 8.55065 22095 ft 408 kts 176°
2026-05-07 12:50 47.90088 8.55964 21446 ft 408 kts 161°
2026-05-07 12:50 47.87552 8.57836 20862 ft 407 kts 148°
2026-05-07 12:50 47.85184 8.60125 20311 ft 404 kts 148°
2026-05-07 12:51 47.82844 8.62387 19836 ft 399 kts 148°
2026-05-07 12:51 47.80528 8.64627 19301 ft 396 kts 148°
2026-05-07 12:51 47.78228 8.66853 18765 ft 393 kts 148°
2026-05-07 12:51 47.75936 8.69067 18191 ft 392 kts 148°
2026-05-07 12:52 47.73657 8.71263 17590 ft 389 kts 148°
2026-05-07 12:52 47.71391 8.73442 17032 ft 386 kts 148°
2026-05-07 12:52 47.69071 8.75405 16458 ft 382 kts 161°
2026-05-07 12:52 47.66501 8.76160 15896 ft 375 kts 181°
2026-05-07 12:53 47.63952 8.75641 15333 ft 369 kts 199°
2026-05-07 12:53 47.61672 8.73985 14727 ft 364 kts 217°
2026-05-07 12:53 47.59914 8.71408 14135 ft 360 kts 235°
2026-05-07 12:53 47.58799 8.68114 13500 ft 358 kts 253°
2026-05-07 12:54 47.58455 8.64493 12884 ft 355 kts 271°
2026-05-07 12:54 47.58898 8.60916 12246 ft 355 kts 289°
2026-05-07 12:54 47.60090 8.57721 11663 ft 354 kts 306°
2026-05-07 12:54 47.61809 8.55121 11057 ft 353 kts 315°
2026-05-07 12:55 47.63595 8.52659 10614 ft 346 kts 315°
2026-05-07 12:55 47.65319 8.50302 10475 ft 329 kts 315°
2026-05-07 12:55 47.66963 8.48060 10359 ft 314 kts 315°
2026-05-07 12:55 47.68538 8.45907 10235 ft 301 kts 315°
2026-05-07 12:56 47.70048 8.43840 10088 ft 290 kts 315°
2026-05-07 12:56 47.71514 8.41830 9925 ft 284 kts 315°
2026-05-07 12:56 47.72946 8.39783 9567 ft 285 kts 307°
2026-05-07 12:56 47.73823 8.37214 9134 ft 278 kts 279°
2026-05-07 12:57 47.73790 8.34387 8685 ft 276 kts 253°
2026-05-07 12:57 47.72883 8.31896 8247 ft 278 kts 230°
2026-05-07 12:57 47.71562 8.29767 7788 ft 283 kts 227°
2026-05-07 12:57 47.70138 8.27734 7325 ft 288 kts 215°
2026-05-07 12:58 47.68242 8.26807 6828 ft 293 kts 183°
2026-05-07 12:58 47.66274 8.27547 6417 ft 295 kts 152°
2026-05-07 12:58 47.64661 8.29404 5993 ft 294 kts 136°
2026-05-07 12:58 47.63280 8.31633 5559 ft 292 kts 132°
2026-05-07 12:59 47.61972 8.33915 5127 ft 289 kts 132°
2026-05-07 12:59 47.60647 8.36129 4746 ft 285 kts 134°
2026-05-07 12:59 47.59289 8.38240 4351 ft 281 kts 136°
2026-05-07 12:59 47.57929 8.40238 3966 ft 277 kts 138°
2026-05-07 13:00 47.56553 8.42187 3606 ft 271 kts 138°
2026-05-07 13:00 47.55194 8.44072 3271 ft 265 kts 139°
2026-05-07 13:00 47.53864 8.45896 3070 ft 252 kts 138°
2026-05-07 13:00 47.52610 8.47610 2693 ft 241 kts 139°
2026-05-07 13:01 47.51404 8.49256 2289 ft 229 kts 138°
2026-05-07 13:01 47.50265 8.50808 1997 ft 213 kts 138°
2026-05-07 13:01 47.49233 8.52217 1713 ft 195 kts 138°
2026-05-07 13:01 47.48286 8.53507 1472 ft 174 kts 137°
2026-05-07 13:02 47.47470 8.54598 1405 ft 145 kts 134°
2026-05-07 13:02 47.46796 8.55531 1398 ft 121 kts 136°
2026-05-07 13:02 47.46373 8.56123 1404 ft 47 kts 136°
2026-05-07 13:02 47.46180 8.56348 1409 ft 23 kts 169°
2026-05-07 13:03 47.46086 8.56339 1413 ft 7 kts 187°
2026-05-07 13:03 47.46068 8.56335 1411 ft 0 kts 187°
2026-05-07 13:03 47.46062 8.56334 1414 ft 4 kts 188°
2026-05-07 13:04 47.46038 8.56329 1411 ft 2 kts 188°
2026-05-07 13:04 47.45999 8.56321 1412 ft 7 kts 187°
2026-05-07 13:04 47.45945 8.56311 1413 ft 10 kts 194°
2026-05-07 13:04 47.45910 8.56224 1412 ft 12 kts 270°
2026-05-07 13:05 47.45924 8.56082 1409 ft 14 kts 276°
2026-05-07 13:05 47.45935 8.55918 1413 ft 17 kts 275°
2026-05-07 13:05 47.45946 8.55758 1404 ft 17 kts 276°
2026-05-07 13:05 47.45959 8.55596 1401 ft 14 kts 276°
2026-05-07 13:06 47.45969 8.55479 1405 ft 8 kts 295°
2026-05-07 13:06 47.46013 8.55464 1398 ft 7 kts
2026-05-07 13:06 47.46042 8.55469 1399 ft 2 kts
2026-05-07 13:06 47.46052 8.55471 1403 ft 1 kts
2026-05-07 13:07 47.46054 8.55471 1403 ft 0 kts